Flag for United Kingdom Weather past 2 weeks in Horsham, England, United Kingdom

Now
59 °F

Light rain. Partly sunny.


Feels Like: 58 °F
Forecast: 51 / 69 °F
Wind: 6 mph from Southwest

Location: London / Gatwick Airport

Current Time: Jul 5, 2015 at 8:57:58 AM

Latest Report: Jul 5, 2015 at 8:20 AM


Visibility: N/A

Pressure: 30.09 "Hg

Humidity: 88%

Dew point: 55 °F

Location of HorshamLocation

Historic Weather in Horsham — Graph

°F

Horsham temperature yesterday

Maximum temperature yesterday: 75 °F (at 11:50 AM)
Minimum temperature yesterday: 55 °F (at 11:50 PM)
Average temperature yesterday: 67 °F

Past Weeks' High & Low Weather Summary

 TemperatureHumidityPressure
High91 °F (Jul 1, 4:20 PM)100% (Jun 20, 10:20 PM)30.30 "Hg (Jun 20, 10:20 PM)
Low46 °F (Jun 25, 4:20 AM)32% (Jun 30, 5:20 PM)29.77 "Hg (Jun 22, 3:20 PM)
Average64 °F72%30.08 "Hg
* Reported Jun 20 7:20 AM — Jul 5 7:50 AM, Horsham, Weather by CustomWeather, © 2015

Note: Actual official high and low records may vary slightly from our data, if they occured in-between our weather recording intervals... More about our weather records

Advertising

Horsham weather history for previous 24 hours

 ConditionsComfort  
Time TempWeatherWind HumidityBarometerVisibility
7:50 AM
Sun, Jul 5
59 °FPartly sunny.3 mph88%30.07 "HgN/A
7:20 AM57 °FSunny.No wind88%30.07 "Hg10 mi
6:50 AM55 °FPartly sunny.No wind94%30.09 "HgN/A
6:20 AM54 °FPartly sunny.2 mph94%30.09 "HgN/A
5:50 AM52 °FScattered clouds.2 mph94%30.09 "HgN/A
5:20 AM52 °FPassing clouds.3 mph94%30.09 "HgN/A
4:20 AM50 °FPassing clouds.No wind100%30.09 "HgN/A
3:50 AM50 °FClear.3 mph94%30.12 "Hg10 mi
3:20 AM50 °FPassing clouds.No wind94%30.12 "HgN/A
2:50 AM52 °FPassing clouds.2 mph94%30.12 "HgN/A
2:20 AM52 °FClear.No wind94%30.12 "Hg10 mi
1:50 AM52 °FClear.2 mph94%30.15 "Hg10 mi
1:20 AM54 °FClear.2 mph88%30.15 "Hg10 mi
12:50 AM54 °FClear.No wind94%30.15 "Hg10 mi
12:20 AM54 °FClear.3 mph88%30.12 "Hg10 mi
11:50 PM
Sat, Jul 4
55 °FClear.2 mph82%30.12 "Hg10 mi
11:20 PM57 °FClear.5 mph82%30.12 "Hg10 mi
10:50 PM57 °FClear.5 mph82%30.12 "Hg10 mi
10:20 PM59 °FClear.5 mph77%30.15 "Hg10 mi
9:50 PM59 °FSunny.3 mph77%30.12 "Hg10 mi
9:20 PM63 °FSunny.3 mph68%30.12 "Hg10 mi
8:50 PM64 °FSunny.5 mph64%30.12 "Hg10 mi
8:20 PM66 °FSunny.8 mph60%30.15 "Hg10 mi
7:50 PM66 °FSunny.8 mph64%30.15 "Hg10 mi
7:20 PM68 °FSunny.10 mph60%30.12 "Hg10 mi
6:50 PM70 °FSunny.13 mph57%30.12 "Hg10 mi
6:20 PM72 °FSunny.12 mph53%30.12 "Hg10 mi
5:50 PM73 °FScattered clouds.14 mph57%30.12 "HgN/A
5:20 PM73 °FScattered clouds.13 mph57%30.12 "HgN/A
4:50 PM73 °FScattered clouds.12 mph61%30.12 "HgN/A
4:20 PM73 °FScattered clouds.13 mph61%30.12 "HgN/A
3:50 PM75 °FPassing clouds.14 mph57%30.12 "HgN/A
3:20 PM75 °FPassing clouds.12 mph57%30.12 "HgN/A
2:50 PM73 °FPassing clouds.14 mph61%30.12 "HgN/A
2:20 PM75 °FScattered clouds.14 mph57%30.09 "HgN/A
1:50 PM73 °FPassing clouds.13 mph65%30.09 "HgN/A
1:20 PM73 °FScattered clouds.14 mph61%30.09 "HgN/A
12:50 PM73 °FPassing clouds.15 mph65%30.09 "HgN/A
12:20 PM73 °FScattered clouds.14 mph65%30.09 "HgN/A
11:50 AM75 °FScattered clouds.14 mph65%30.09 "HgN/A
11:20 AM73 °FPassing clouds.16 mph65%30.09 "HgN/A
10:50 AM73 °FScattered clouds.15 mph65%30.07 "HgN/A
10:20 AM72 °FScattered clouds.14 mph69%30.07 "HgN/A
9:50 AM72 °FScattered clouds.10 mph65%30.07 "HgN/A
9:20 AM70 °FPassing clouds.9 mph73%30.07 "HgN/A
8:50 AM70 °FPassing clouds.10 mph83%30.07 "HgN/A
8:20 AM68 °FPassing clouds.9 mph88%30.04 "HgN/A
Weather by CustomWeather, © 2015

See weather overviewHow to use our weather pages